Location: Boley
(53.1150°N, 8.2269°W)
Time: 23:34:23
(UTC+00:00)

CZ-4C R/B - Pass Details

Date: 15 May 2026
Orbit: 473 x 1503 km, 63.4° (Epoch: 11 June)

Event Time Altitude Azimuth Distance (km) Brightness Sun altitude
Rises 22:40:53 0° 276° (W) 2,998 5.5 -14.1°
Reaches altitude 10° 22:43:10 10° 287° (WNW) 2,217 5.0 -14.3°
Maximum altitude 22:47:47 33° 351° (N) 1,419 4.1 -14.6°
Drops below altitude 10° 22:53:39 10° 54° (NE) 2,847 5.1 -14.9°
Sets 22:56:58 0° 63° (ENE) 3,991 5.8 -15.1°
